Flag for Belgium

Past Weather in 50°29'27.8"N, 5°05'35.7"E, Belgium — Yesterday and Last 2 Weeks

Currently: 39 °F. Fog. (Weather station: Charleroi / Gosselies, Belgium). See more current weather

Past Weather in 50°29'27.8"N, 5°05'35.7"E — Graph

°F

50°29'27.8"N, 5°05'35.7"E Temperature Yesterday

Maximum temperature yesterday: 39 °F (at 2:50 pm)
Minimum temperature yesterday: 32 °F (at 5:50 am)
Average temperature yesterday: 35 °F

High & Low Weather Summary for the Past Weeks

 TemperatureHumidityPressure
High52 °F (Jan 20, 8:20 pm)100% (Jan 13, 4:50 pm)30.42 "Hg (Jan 13, 4:50 pm)
Low27 °F (Jan 15, 4:50 am)50% (Jan 20, 1:50 pm)29.06 "Hg (Jan 21, 9:50 pm)
Average36 °F87%29.82 "Hg
* Reported Jan 12 7:20 pm — Jan 27 7:50 pm, 50°29'27.8"N, 5°05'35.7"E. Weather by CustomWeather, © 2021

Note: Actual official high and low records may vary slightly from our data, if they occured in-between our weather recording intervals... More about our weather records

50°29'27.8"N, 5°05'35.7"E Weather History for the Previous 24 Hours

Scroll right to see more
 ConditionsComfort  
Time TempWeatherWind HumidityBarometerVisibility
7:50 pm
Wed, Jan 27
39 °FFog.8 mph93%29.92 "Hg0 mi
7:20 pm39 °FFog.8 mph100%29.92 "Hg0 mi
6:50 pm39 °FFog.7 mph100%29.92 "Hg0 mi
6:20 pm39 °FFog.7 mph100%29.92 "Hg0 mi
5:50 pm39 °FFog.8 mph100%29.92 "Hg0 mi
5:20 pm39 °FFog.10 mph93%29.92 "Hg0 mi
4:50 pm39 °FFog.10 mph93%29.92 "Hg0 mi
4:20 pm39 °FFog.9 mph93%29.92 "Hg0 mi
3:50 pm39 °FFog.8 mph93%29.92 "Hg0 mi
3:20 pm37 °FFog.9 mph100%29.92 "Hg1 mi
2:50 pm37 °FFog.10 mph100%29.89 "Hg1 mi
2:20 pm37 °FFog.10 mph93%29.89 "Hg1 mi
1:50 pm37 °FFog.12 mph93%29.89 "Hg1 mi
12:50 pm36 °FFog.13 mph100%29.92 "Hg1 mi
12:20 pm36 °FFog.15 mph93%29.89 "Hg1 mi
11:50 am36 °FFog.14 mph93%29.89 "Hg1 mi
11:20 am36 °FDrizzle. Fog.15 mph93%29.89 "Hg1 mi
10:50 am34 °FDrizzle. Fog.14 mph100%29.89 "Hg1 mi
10:20 am34 °FDrizzle. Fog.14 mph100%29.89 "Hg2 mi
9:50 am34 °FDrizzle. Fog.14 mph93%29.89 "Hg1 mi
9:20 am34 °FDrizzle. Fog.15 mph93%29.89 "Hg1 mi
8:50 am34 °FDrizzle. Fog.16 mph93%29.86 "Hg1 mi
8:20 am34 °FDrizzle. Fog.20 mph93%29.89 "Hg1 mi
7:50 am34 °FDrizzle. Fog.17 mph93%29.86 "Hg2 mi
6:50 am34 °FPartly cloudy.15 mph87%29.89 "Hg4 mi
6:20 am34 °FPartly cloudy.18 mph87%29.86 "Hg4 mi
5:50 am34 °FPartly cloudy.16 mph87%29.89 "Hg4 mi
5:20 am34 °FPartly cloudy.17 mph87%29.89 "Hg4 mi
4:50 am34 °FDrizzle. Fog.14 mph87%29.92 "Hg2 mi
4:20 am34 °FLight rain. Partly cloudy.15 mph87%29.92 "Hg4 mi
3:50 am32 °FLight snow. Partly cloudy.15 mph93%29.92 "Hg4 mi
3:20 am32 °FLight snow. Ice fog.10 mph93%29.95 "Hg1 mi
2:50 am32 °FLight snow. Ice fog.10 mph93%29.98 "Hg1 mi
2:20 am32 °FLight snow. Ice fog.10 mph93%29.98 "Hg1 mi
1:50 am32 °FLight snow. Ice fog.12 mph93%30.01 "Hg1 mi
1:20 am32 °FLight snow. Ice fog.12 mph93%30.01 "Hg1 mi
12:50 am34 °FLight snow. Fog.15 mph81%30.01 "Hg2 mi
12:20 am36 °FPassing clouds.12 mph70%30.04 "HgN/A
11:50 pm
Tue, Jan 26
36 °FClear.14 mph65%30.04 "Hg10 mi
11:20 pm36 °FClear.12 mph70%30.04 "Hg10 mi
10:50 pm36 °FClear.12 mph70%30.04 "Hg10 mi
10:20 pm36 °FClear.15 mph70%30.04 "Hg10 mi
9:50 pm36 °FClear.12 mph70%30.07 "Hg10 mi
9:20 pm36 °FClear.12 mph75%30.07 "Hg10 mi
Weather by CustomWeather, © 2021

See weather overview